THORAD DELTA 1 DEB, 42610

Orbit data source: Space-Track

THORAD DELTA 1 DEB, 42610 is space debris in SSO originally from a launch on Fri, 15 Nov 1974 UTC launched from the Air Force Western Test Range (AFWTR). Debris objects in space refer to the collection of defunct objects orbiting the Earth. Examples of debris include non-operational satellites, rocket bodies, and fragments generated from explosions, collisions, or faulty payload assembly.

Loading next visibility...
Identifier
42610, 1974-089GB
Orbit
SSO
Country
Flag of USUS
Related business
Manufacturer
Unknown
Mission
Spacecraft
Bus & Motor
Unknown
Mass
Unknown
Launch date (UTC)
1974-11-15 (52 years ago)
Launch vehicle
Unknown
Launch site
Air Force Western Test Range (AFWTR)
Object type
Payload
Rocket body
Debris
Shape & HBR
Unknown shape, 0.1 m
Radar Cross Section
Medium (>0.1 m² and <1 m²)

Expand to show TLE details & history
Last TLE update: 5 days ago

TLE from 5 days ago
0 THORAD DELTA 1 DEB
1 42610U 74089GB  26204.32824959 -.00000011  00000-0  22192-3 0  9999
2 42610 101.3895  68.4918 0080223  58.7281 302.1612 12.40372851573681
Epoch: 2026-07-23T07:52Z
TLE epoch observation values (Epoch: 2026-07-23T07:52:40.764Z)
Latitude
-0°
Longitude
9.25114°
Altitude
1,474.294 km
Speed
7.141 km/s
True Right ascension
04h 33m 58s
True Declination
0° 00' 00"
Sunlit
Object was in daylight at epoch
Visualization orbit readout
Latitude
Unknown
Longitude
Unknown
Altitude
Unknown
Speed
Unknown
Apparent Right ascension
Unknown
Apparent Declination
Unknown
Sunlit
N/A
Visualization observer readout
Local Sidereal Time
10:31:37
Azimuth
Unknown
Elevation
Unknown
Doppler factor
Unknown
Orbital elements
Apogee altitude
1,565.783 km
Perigee altitude
1,439.34 km
Semi-major axis
7,880.699 km
Eccentricity
0.00802
Inclination
101.3895°
RAAN
68.4918°
Arg. of periapsis
58.7281°
True anomaly
301.37882°
Mean anomaly
302.1612°
Eccentric anomaly
301.77043°
Mean motion
3.10239 °/min
Orbital period
116.04 mins
BSTAR
0.00022192
Loading maneuver chart data...
Computing Atmospheric mass density...

Documentation

Showing up to 5 results
|